Time,TemperatureF,DewpointF,PressureIn,WindDirection,WindDirectionDegrees,WindSpeedMPH,WindSpeedGustMPH,Humidity,HourlyPrecipIn,Conditions,Clouds,dailyrainin,SolarRadiationWatts/m^2,SoftwareType,DateUTC
2013-04-22 00:00:00,56.3,42.6,29.96,South,180,5.0,18.0,60,0.00,,---,0.00,0.00,VWS V14.01,2013-04-22 05:00:00,
2013-04-22 00:02:00,56.3,42.6,29.96,South,177,13.0,15.0,60,0.00,,---,0.00,0.00,VWS V14.01,2013-04-22 05:02:00,
2013-04-22 00:07:00,56.6,42.5,29.96,South,173,12.0,16.0,59,0.00,,---,0.00,0.00,VWS V14.01,2013-04-22 05:07:00,
2013-04-22 00:12:00,56.9,42.3,29.96,SSE,154,11.0,20.0,58,0.00,,---,0.00,0.00,VWS V14.01,2013-04-22 05:12:00,
2013-04-22 00:17:00,57.0,42.4,29.97,South,173,16.0,20.0,58,0.00,,---,0.00,0.00,VWS V14.01,2013-04-22 05:17:00,
2013-04-22 00:22:00,56.9,42.3,29.96,South,178,12.0,20.0,58,0.00,,---,0.00,0.00,VWS V14.01,2013-04-22 05:22:00,
2013-04-22 00:27:00,56.7,42.1,29.96,South,184,9.0,20.0,58,0.00,,---,0.00,0.00,VWS V14.01,2013-04-22 05:27:00,
2013-04-22 00:30:00,56.7,43.8,29.96,South,170,14.0,20.0,62,0.00,,---,0.00,0.00,VWS V14.01,2013-04-22 05:30:00,
2013-04-22 00:32:00,56.6,42.5,29.96,SSE,155,8.0,16.0,59,0.00,,---,0.00,0.00,VWS V14.01,2013-04-22 05:32:00,
2013-04-22 00:37:00,56.3,42.6,29.96,SSE,159,13.0,18.0,60,0.00,,---,0.00,0.00,VWS V14.01,2013-04-22 05:37:00,
2013-04-22 00:42:00,56.0,42.3,29.96,SSE,161,8.0,18.0,60,0.00,,---,0.00,0.00,VWS V14.01,2013-04-22 05:42:00,
2013-04-22 00:47:00,55.7,42.5,29.96,South,172,11.0,18.0,61,0.00,,---,0.00,0.00,VWS V14.01,2013-04-22 05:47:00,
2013-04-22 00:52:00,55.7,42.5,29.96,SSE,150,9.0,18.0,61,0.00,,---,0.00,0.00,VWS V14.01,2013-04-22 05:52:00,
2013-04-22 00:57:00,55.6,42.4,29.96,SSW,193,9.0,18.0,61,0.00,,---,0.00,0.00,VWS V14.01,2013-04-22 05:57:00,
2013-04-22 01:00:00,55.6,42.4,29.96,SSE,151,11.0,18.0,61,0.00,,---,0.00,0.00,VWS V14.01,2013-04-22 06:00:00,
2013-04-22 01:02:00,55.7,42.5,29.96,South,173,12.0,14.0,61,0.00,,---,0.00,0.00,VWS V14.01,2013-04-22 06:02:00,
2013-04-22 01:07:00,55.7,42.0,29.96,South,188,8.0,17.0,60,0.00,,---,0.00,0.00,VWS V14.01,2013-04-22 06:07:00,
2013-04-22 01:12:00,55.7,42.0,29.96,SSE,167,7.0,17.0,60,0.00,,---,0.00,0.00,VWS V14.01,2013-04-22 06:12:00,
2013-04-22 01:17:00,55.7,42.0,29.96,SSE,165,11.0,17.0,60,0.00,,---,0.00,0.00,VWS V14.01,2013-04-22 06:17:00,
2013-04-22 01:22:00,55.6,42.4,29.96,SSE,165,12.0,17.0,61,0.00,,---,0.00,0.00,VWS V14.01,2013-04-22 06:22:00,
2013-04-22 01:27:00,55.6,42.4,29.96,South,171,11.0,17.0,61,0.00,,---,0.00,0.00,VWS V14.01,2013-04-22 06:27:00,
2013-04-22 01:30:00,55.6,42.4,29.96,SE,142,8.0,17.0,61,0.00,,---,0.00,0.00,VWS V14.01,2013-04-22 06:30:00,
2013-04-22 01:32:00,55.6,42.4,29.96,SSE,155,10.0,13.0,61,0.00,,---,0.00,0.00,VWS V14.01,2013-04-22 06:32:00,
2013-04-22 01:37:00,55.6,42.4,29.96,South,173,13.0,16.0,61,0.00,,---,0.00,0.00,VWS V14.01,2013-04-22 06:37:00,
2013-04-22 01:42:00,55.4,42.2,29.95,SE,136,5.0,16.0,61,0.00,,---,0.00,0.00,VWS V14.01,2013-04-22 06:42:00,
2013-04-22 01:47:00,55.4,42.2,29.95,South,183,11.0,16.0,61,0.00,,---,0.00,0.00,VWS V14.01,2013-04-22 06:47:00,
2013-04-22 01:52:00,55.4,41.8,29.95,SSE,154,7.0,16.0,60,0.00,,---,0.00,0.00,VWS V14.01,2013-04-22 06:52:00,
2013-04-22 01:57:00,55.6,42.0,29.95,South,170,10.0,16.0,60,0.00,,---,0.00,0.00,VWS V14.01,2013-04-22 06:57:00,
2013-04-22 02:00:00,55.7,42.0,29.95,SSW,202,5.0,16.0,60,0.00,,---,0.00,0.00,VWS V14.01,2013-04-22 07:00:00,
2013-04-22 02:02:00,55.7,42.0,29.95,South,184,14.0,16.0,60,0.00,,---,0.00,0.00,VWS V14.01,2013-04-22 07:02:00,
2013-04-22 02:07:00,55.6,42.0,29.95,SSE,163,13.0,16.0,60,0.00,,---,0.00,0.00,VWS V14.01,2013-04-22 07:07:00,
2013-04-22 02:12:00,55.4,41.8,29.95,SSE,155,10.0,18.0,60,0.00,,---,0.00,0.00,VWS V14.01,2013-04-22 07:12:00,
2013-04-22 02:17:00,55.3,42.1,29.94,SSE,165,12.0,18.0,61,0.00,,---,0.00,0.00,VWS V14.01,2013-04-22 07:17:00,
2013-04-22 02:22:00,55.3,42.1,29.94,SSE,163,9.0,18.0,61,0.00,,---,0.00,0.00,VWS V14.01,2013-04-22 07:22:00,
2013-04-22 02:27:00,55.3,42.1,29.95,South,175,12.0,18.0,61,0.00,,---,0.00,0.00,VWS V14.01,2013-04-22 07:27:00,
2013-04-22 02:30:00,55.3,42.1,29.95,SSE,152,13.0,18.0,61,0.00,,---,0.00,0.00,VWS V14.01,2013-04-22 07:30:00,
2013-04-22 02:32:00,55.3,42.1,29.95,South,179,5.0,13.0,61,0.00,,---,0.00,0.00,VWS V14.01,2013-04-22 07:32:00,
2013-04-22 02:38:00,55.3,42.1,29.95,SSE,165,8.0,14.0,61,0.00,,---,0.00,0.00,VWS V14.01,2013-04-22 07:38:00,
2013-04-22 02:43:00,55.4,41.8,29.95,South,188,7.0,15.0,60,0.00,,---,0.00,0.00,VWS V14.01,2013-04-22 07:43:00,
2013-04-22 02:48:00,55.4,41.8,29.95,SSE,150,6.0,15.0,60,0.00,,---,0.00,0.00,VWS V14.01,2013-04-22 07:48:00,
2013-04-22 02:52:00,55.4,42.2,29.94,SSE,153,8.0,15.0,61,0.00,,---,0.00,0.00,VWS V14.01,2013-04-22 07:52:00,
2013-04-22 02:57:00,55.3,42.1,29.94,SSE,163,9.0,15.0,61,0.00,,---,0.00,0.00,VWS V14.01,2013-04-22 07:57:00,
2013-04-22 03:00:00,55.3,42.1,29.94,South,173,11.0,15.0,61,0.00,,---,0.00,0.00,VWS V14.01,2013-04-22 08:00:00,
2013-04-22 03:02:00,55.1,41.9,29.94,South,188,12.0,15.0,61,0.00,,---,0.00,0.00,VWS V14.01,2013-04-22 08:02:00,
2013-04-22 03:07:00,55.0,42.2,29.93,SSE,165,9.0,15.0,62,0.00,,---,0.00,0.00,VWS V14.01,2013-04-22 08:07:00,
2013-04-22 03:13:00,54.7,42.0,29.93,SSW,200,3.0,15.0,62,0.00,,---,0.00,0.00,VWS V14.01,2013-04-22 08:13:00,
2013-04-22 03:18:00,54.5,41.8,29.93,SSE,167,10.0,15.0,62,0.00,,---,0.00,0.00,VWS V14.01,2013-04-22 08:18:00,
2013-04-22 03:23:00,54.2,41.9,29.93,SSE,156,10.0,16.0,63,0.00,,---,0.00,0.00,VWS V14.01,2013-04-22 08:23:00,
2013-04-22 03:28:00,54.1,42.2,29.93,South,187,11.0,16.0,64,0.00,,---,0.00,0.00,VWS V14.01,2013-04-22 08:28:00,
2013-04-22 03:30:00,54.1,42.2,29.93,South,173,13.0,16.0,64,0.00,,---,0.00,0.00,VWS V14.01,2013-04-22 08:30:00,
2013-04-22 03:33:00,54.1,42.2,29.92,SSE,156,8.0,15.0,64,0.00,,---,0.00,0.00,VWS V14.01,2013-04-22 08:33:00,
2013-04-22 03:38:00,54.1,42.2,29.92,South,180,12.0,15.0,64,0.00,,---,0.00,0.00,VWS V14.01,2013-04-22 08:38:00,
2013-04-22 03:43:00,54.1,42.2,29.93,South,188,8.0,15.0,64,0.00,,---,0.00,0.00,VWS V14.01,2013-04-22 08:43:00,
2013-04-22 03:48:00,54.1,42.2,29.93,SSW,192,11.0,15.0,64,0.00,,---,0.00,0.00,VWS V14.01,2013-04-22 08:48:00,
2013-04-22 03:53:00,53.9,42.0,29.93,SSE,161,6.0,15.0,64,0.00,,---,0.00,0.00,VWS V14.01,2013-04-22 08:53:00,
2013-04-22 03:58:00,53.8,42.3,29.93,SSW,193,13.0,15.0,65,0.00,,---,0.00,0.00,VWS V14.01,2013-04-22 08:58:00,
2013-04-22 04:00:00,53.8,42.3,29.93,South,177,8.0,15.0,65,0.00,,---,0.00,0.00,VWS V14.01,2013-04-22 09:00:00,
2013-04-22 04:03:00,53.8,42.3,29.94,SSE,161,9.0,13.0,65,0.00,,---,0.00,0.00,VWS V14.01,2013-04-22 09:03:00,
2013-04-22 04:08:00,53.8,42.3,29.94,South,170,9.0,13.0,65,0.00,,---,0.00,0.00,VWS V14.01,2013-04-22 09:08:00,
2013-04-22 04:13:00,53.8,42.3,29.94,SSW,198,7.0,13.0,65,0.00,,---,0.00,0.00,VWS V14.01,2013-04-22 09:13:00,
2013-04-22 04:18:00,53.6,42.1,29.94,SSW,200,9.0,14.0,65,0.00,,---,0.00,0.00,VWS V14.01,2013-04-22 09:18:00,
2013-04-22 04:23:00,53.5,42.0,29.95,SSE,166,9.0,14.0,65,0.00,,---,0.00,0.00,VWS V14.01,2013-04-22 09:23:00,
2013-04-22 04:28:00,53.3,42.2,29.95,SSW,192,4.0,14.0,66,0.00,,---,0.00,0.00,VWS V14.01,2013-04-22 09:28:00,
2013-04-22 04:30:00,53.2,42.2,29.95,SSW,194,8.0,14.0,66,0.00,,---,0.00,0.00,VWS V14.01,2013-04-22 09:30:00,
2013-04-22 04:33:00,53.2,42.5,29.95,SSW,192,5.0,11.0,67,0.00,,---,0.00,0.00,VWS V14.01,2013-04-22 09:33:00,
2013-04-22 04:38:00,53.1,42.5,29.95,SSW,202,5.0,14.0,67,0.00,,---,0.00,0.00,VWS V14.01,2013-04-22 09:38:00,
2013-04-22 04:43:00,52.9,42.6,29.94,South,173,9.0,14.0,68,0.00,,---,0.00,0.00,VWS V14.01,2013-04-22 09:43:00,
2013-04-22 04:48:00,52.8,42.5,29.94,SW,227,6.0,14.0,68,0.00,,---,0.00,0.00,VWS V14.01,2013-04-22 09:48:00,
2013-04-22 04:53:00,52.8,42.5,29.93,SSE,166,6.0,14.0,68,0.00,,---,0.00,0.00,VWS V14.01,2013-04-22 09:53:00,
2013-04-22 04:58:00,52.8,42.5,29.93,SSE,155,10.0,14.0,68,0.00,,---,0.00,0.00,VWS V14.01,2013-04-22 09:58:00,
2013-04-22 05:00:00,52.8,42.5,29.93,SSE,155,10.0,14.0,68,0.00,,---,0.00,0.00,VWS V14.01,2013-04-22 10:00:00,
2013-04-22 05:03:00,52.6,42.7,29.92,SSE,159,8.0,13.0,69,0.00,,---,0.00,0.00,VWS V14.01,2013-04-22 10:03:00,
2013-04-22 05:08:00,52.3,42.5,29.92,SSE,153,11.0,13.0,69,0.00,,---,0.00,0.00,VWS V14.01,2013-04-22 10:08:00,
2013-04-22 05:13:00,52.2,42.7,29.92,SSE,166,7.0,13.0,70,0.00,,---,0.00,0.00,VWS V14.01,2013-04-22 10:13:00,
2013-04-22 05:18:00,52.3,42.5,29.92,SSE,166,10.0,14.0,69,0.00,,---,0.00,0.00,VWS V14.01,2013-04-22 10:18:00,
2013-04-22 05:23:00,52.5,42.6,29.91,SSE,153,11.0,15.0,69,0.00,,---,0.00,0.00,VWS V14.01,2013-04-22 10:23:00,
2013-04-22 05:28:00,52.5,42.6,29.92,South,179,13.0,16.0,69,0.00,,---,0.00,0.00,VWS V14.01,2013-04-22 10:28:00,
2013-04-22 05:30:00,52.6,42.7,29.92,SSE,155,14.0,16.0,69,0.00,,---,0.00,0.00,VWS V14.01,2013-04-22 10:30:00,
2013-04-22 05:33:00,52.6,42.7,29.91,SSE,148,8.0,16.0,69,0.00,,---,0.00,0.00,VWS V14.01,2013-04-22 10:33:00,
2013-04-22 05:38:00,52.8,42.9,29.91,South,169,13.0,16.0,69,0.00,,---,0.00,0.00,VWS V14.01,2013-04-22 10:38:00,
2013-04-22 05:43:00,52.9,43.0,29.91,SSE,151,12.0,16.0,69,0.00,,---,0.00,0.00,VWS V14.01,2013-04-22 10:43:00,
2013-04-22 05:48:00,53.2,42.9,29.91,South,182,8.0,16.0,68,0.00,,---,0.00,0.00,VWS V14.01,2013-04-22 10:48:00,
2013-04-22 05:53:00,53.3,43.0,29.91,South,187,2.0,16.0,68,0.00,,---,0.00,0.00,VWS V14.01,2013-04-22 10:53:00,
2013-04-22 05:58:00,53.5,43.2,29.91,South,189,8.0,16.0,68,0.00,,---,0.00,0.00,VWS V14.01,2013-04-22 10:58:00,
2013-04-22 06:00:00,53.5,42.8,29.91,SSE,148,5.0,16.0,67,0.00,,---,0.00,0.00,VWS V14.01,2013-04-22 11:00:00,
2013-04-22 06:03:00,53.6,42.9,29.92,South,175,6.0,11.0,67,0.00,,---,0.00,0.00,VWS V14.01,2013-04-22 11:03:00,
2013-04-22 06:08:00,53.6,42.9,29.92,SSE,161,9.0,11.0,67,0.00,,---,0.00,0.00,VWS V14.01,2013-04-22 11:08:00,
2013-04-22 06:13:00,53.8,43.1,29.91,SSW,205,6.0,12.0,67,0.00,,---,0.00,0.00,VWS V14.01,2013-04-22 11:13:00,
2013-04-22 06:18:00,54.1,43.0,29.91,SSE,152,8.0,17.0,66,0.00,,---,0.00,0.00,VWS V14.01,2013-04-22 11:18:00,
2013-04-22 06:23:00,54.2,43.1,29.91,South,171,12.0,17.0,66,0.00,,---,0.00,0.00,VWS V14.01,2013-04-22 11:23:00,
2013-04-22 06:28:00,54.4,43.3,29.92,South,184,8.0,17.0,66,0.00,,---,0.00,0.00,VWS V14.01,2013-04-22 11:28:00,
2013-04-22 06:30:00,54.2,43.1,29.92,SSE,160,6.0,17.0,66,0.00,,---,0.00,0.00,VWS V14.01,2013-04-22 11:30:00,
2013-04-22 06:33:00,54.2,43.1,29.92,SSE,166,5.0,10.0,66,0.00,,---,0.00,0.00,VWS V14.01,2013-04-22 11:33:00,
2013-04-22 06:38:00,54.1,43.4,29.93,South,184,7.0,10.0,67,0.00,,---,0.00,0.00,VWS V14.01,2013-04-22 11:38:00,
2013-04-22 06:43:00,53.9,43.2,29.93,SSE,164,5.0,10.0,67,0.00,,---,0.00,0.00,VWS V14.01,2013-04-22 11:43:00,
2013-04-22 06:48:00,53.9,43.2,29.93,SSE,167,4.0,10.0,67,0.00,,---,0.00,0.00,VWS V14.01,2013-04-22 11:48:00,
2013-04-22 06:53:00,53.9,43.2,29.93,South,180,4.0,10.0,67,0.00,,---,0.00,0.00,VWS V14.01,2013-04-22 11:53:00,
2013-04-22 06:58:00,53.9,43.2,29.93,South,179,4.0,10.0,67,0.00,,---,0.00,0.00,VWS V14.01,2013-04-22 11:58:00,
2013-04-22 07:00:00,53.9,43.2,29.93,SSE,166,4.0,10.0,67,0.00,,---,0.00,0.00,VWS V14.01,2013-04-22 12:00:00,
2013-04-22 07:03:00,53.9,43.2,29.94,SSE,166,4.0,6.0,67,0.00,,---,0.00,0.00,VWS V14.01,2013-04-22 12:03:00,
2013-04-22 07:08:00,53.9,43.2,29.94,SSE,168,4.0,7.0,67,0.00,,---,0.00,5.00,VWS V14.01,2013-04-22 12:08:00,
2013-04-22 07:13:00,54.1,43.4,29.94,SSE,168,0.0,7.0,67,0.00,,---,0.00,5.00,VWS V14.01,2013-04-22 12:13:00,
2013-04-22 07:18:00,54.1,43.4,29.95,SSE,168,0.0,7.0,67,0.00,,---,0.00,5.00,VWS V14.01,2013-04-22 12:18:00,
2013-04-22 07:23:00,54.1,43.4,29.95,SSE,168,2.0,7.0,67,0.00,,---,0.00,7.00,VWS V14.01,2013-04-22 12:23:00,
2013-04-22 07:28:00,54.1,43.4,29.96,SSE,168,2.0,7.0,67,0.00,,---,0.00,7.00,VWS V14.01,2013-04-22 12:28:00,
2013-04-22 07:30:00,54.1,43.8,29.96,SSE,168,1.0,7.0,68,0.00,,---,0.00,5.00,VWS V14.01,2013-04-22 12:30:00,
2013-04-22 07:33:00,54.1,43.8,29.96,SSE,168,0.0,2.0,68,0.00,,---,0.00,7.00,VWS V14.01,2013-04-22 12:33:00,
2013-04-22 07:38:00,54.2,43.9,29.96,SSE,168,0.0,2.0,68,0.00,,---,0.00,11.00,VWS V14.01,2013-04-22 12:38:00,
2013-04-22 07:43:00,54.4,44.1,29.96,SSE,168,0.0,2.0,68,0.00,,---,0.00,12.00,VWS V14.01,2013-04-22 12:43:00,
2013-04-22 07:48:00,54.2,44.3,29.95,SSE,168,1.0,2.0,69,0.00,,---,0.00,12.00,VWS V14.01,2013-04-22 12:48:00,
2013-04-22 07:53:00,53.9,44.0,29.95,SSE,168,0.0,2.0,69,0.00,,---,0.00,19.00,VWS V14.01,2013-04-22 12:53:00,
2013-04-22 07:58:00,53.9,44.3,29.95,SSE,168,4.0,4.0,70,0.00,,---,0.00,28.00,VWS V14.01,2013-04-22 12:58:00,
2013-04-22 08:00:00,53.8,44.3,29.95,SSE,167,5.0,5.0,70,0.00,,---,0.00,28.00,VWS V14.01,2013-04-22 13:00:00,
2013-04-22 08:03:00,53.8,44.3,29.95,ESE,123,2.0,6.0,70,0.00,,---,0.00,28.00,VWS V14.01,2013-04-22 13:03:00,
2013-04-22 08:08:00,53.8,44.6,29.94,ESE,123,1.0,6.0,71,0.00,,---,0.00,28.00,VWS V14.01,2013-04-22 13:08:00,
2013-04-22 08:13:00,53.8,45.0,29.94,ESE,123,2.0,6.0,72,0.00,,---,0.00,28.00,VWS V14.01,2013-04-22 13:13:00,
2013-04-22 08:18:00,53.8,45.4,29.93,ESE,123,4.0,6.0,73,0.00,,---,0.00,40.00,VWS V14.01,2013-04-22 13:18:00,
2013-04-22 08:23:00,53.6,45.9,29.94,ESE,123,2.0,6.0,75,0.00,,---,0.00,58.00,VWS V14.01,2013-04-22 13:23:00,
2013-04-22 08:28:00,53.5,46.1,29.93,ESE,123,4.0,6.0,76,0.00,,---,0.00,76.00,VWS V14.01,2013-04-22 13:28:00,
2013-04-22 08:30:00,53.5,46.1,29.93,ESE,123,4.0,6.0,76,0.00,,---,0.00,76.00,VWS V14.01,2013-04-22 13:30:00,
2013-04-22 08:33:00,53.3,46.3,29.93,ESE,123,5.0,5.0,77,0.00,,---,0.00,72.00,VWS V14.01,2013-04-22 13:33:00,
2013-04-22 08:38:00,53.3,45.9,29.93,East,92,2.0,7.0,76,0.00,,---,0.00,65.00,VWS V14.01,2013-04-22 13:38:00,
2013-04-22 08:43:00,53.3,45.9,29.92,East,92,4.0,7.0,76,0.00,,---,0.00,83.00,VWS V14.01,2013-04-22 13:43:00,
2013-04-22 08:48:00,53.3,45.9,29.92,SE,132,6.0,7.0,76,0.00,,---,0.00,91.00,VWS V14.01,2013-04-22 13:48:00,
2013-04-22 08:53:00,53.6,45.5,29.92,ESE,123,6.0,9.0,74,0.00,,---,0.00,118.00,VWS V14.01,2013-04-22 13:53:00,
2013-04-22 08:58:00,53.9,45.8,29.92,ESE,103,7.0,9.0,74,0.00,,---,0.00,151.00,VWS V14.01,2013-04-22 13:58:00,
2013-04-22 09:00:00,53.9,45.5,29.92,ESE,105,7.0,9.0,73,0.00,,---,0.00,156.00,VWS V14.01,2013-04-22 14:00:00,
2013-04-22 09:03:00,54.1,46.0,29.92,East,96,6.0,7.0,74,0.00,,---,0.00,185.00,VWS V14.01,2013-04-22 14:03:00,
2013-04-22 09:08:00,54.2,46.1,29.92,ESE,105,4.0,8.0,74,0.00,,---,0.00,223.00,VWS V14.01,2013-04-22 14:08:00,
2013-04-22 09:13:00,54.4,45.6,29.92,SE,139,5.0,8.0,72,0.00,,---,0.00,142.00,VWS V14.01,2013-04-22 14:13:00,
2013-04-22 09:18:00,54.4,46.3,29.92,SSE,148,9.0,9.0,74,0.00,,---,0.00,90.00,VWS V14.01,2013-04-22 14:18:00,
2013-04-22 09:23:00,54.4,45.2,29.92,SE,127,8.0,12.0,71,0.00,,---,0.00,62.00,VWS V14.01,2013-04-22 14:23:00,
2013-04-22 09:28:00,54.5,44.9,29.92,SSE,154,7.0,13.0,70,0.00,,---,0.00,49.00,VWS V14.01,2013-04-22 14:28:00,
2013-04-22 09:30:00,54.4,44.5,29.92,SE,127,8.0,13.0,69,0.00,,---,0.00,46.00,VWS V14.01,2013-04-22 14:30:00,
2013-04-22 09:33:00,54.4,44.5,29.91,SSE,148,9.0,14.0,69,0.00,,---,0.00,32.00,VWS V14.01,2013-04-22 14:33:00,
2013-04-22 09:38:00,54.4,44.8,29.91,East,93,5.0,14.0,70,0.00,,---,0.00,39.00,VWS V14.01,2013-04-22 14:38:00,
2013-04-22 09:43:00,54.4,44.5,29.91,ESE,121,7.0,14.0,69,0.00,,---,0.00,63.00,VWS V14.01,2013-04-22 14:43:00,
2013-04-22 09:48:00,54.5,44.9,29.91,SE,129,8.0,14.0,70,0.00,,---,0.00,151.00,VWS V14.01,2013-04-22 14:48:00,
2013-04-22 09:53:00,54.5,44.5,29.91,SE,136,10.0,15.0,69,0.00,,---,0.00,176.00,VWS V14.01,2013-04-22 14:53:00,
2013-04-22 09:58:00,54.4,44.8,29.90,ESE,120,13.0,16.0,70,0.00,,---,0.00,116.00,VWS V14.01,2013-04-22 14:58:00,
2013-04-22 10:00:00,54.2,45.4,29.90,ESE,116,9.0,16.0,72,0.00,,---,0.00,104.00,VWS V14.01,2013-04-22 15:00:00,
2013-04-22 10:03:00,53.9,45.5,29.89,SE,127,11.0,18.0,73,0.00,,---,0.00,62.00,VWS V14.01,2013-04-22 15:03:00,
2013-04-22 10:09:00,53.5,45.1,29.89,ESE,111,15.0,18.0,73,0.00,,---,0.00,60.00,VWS V14.01,2013-04-22 15:09:00,
2013-04-22 10:14:00,53.1,45.4,29.89,SE,136,10.0,18.0,75,0.00,,---,0.00,54.00,VWS V14.01,2013-04-22 15:14:00,
2013-04-22 10:19:00,52.8,45.5,29.89,SE,134,11.0,18.0,76,0.00,,---,0.00,42.00,VWS V14.01,2013-04-22 15:19:00,
2013-04-22 10:24:00,52.5,45.2,29.89,SE,127,11.0,18.0,76,0.00,,---,0.00,32.00,VWS V14.01,2013-04-22 15:24:00,
2013-04-22 10:29:00,52.3,43.9,29.88,SE,140,11.0,18.0,73,0.00,,---,0.00,40.00,VWS V14.01,2013-04-22 15:29:00,
2013-04-22 10:30:00,52.3,45.3,29.88,SE,144,10.0,18.0,77,0.00,,---,0.00,44.00,VWS V14.01,2013-04-22 15:30:00,
2013-04-22 10:34:00,52.3,45.3,29.88,SE,136,15.0,18.0,77,0.00,,---,0.00,70.00,VWS V14.01,2013-04-22 15:34:00,
2013-04-22 10:39:00,52.6,45.3,29.88,SE,144,13.0,19.0,76,0.00,,---,0.00,149.00,VWS V14.01,2013-04-22 15:39:00,
2013-04-22 10:44:00,52.8,45.5,29.87,SE,138,11.0,19.0,76,0.00,,---,0.00,227.00,VWS V14.01,2013-04-22 15:44:00,
2013-04-22 10:49:00,53.2,45.8,29.87,SE,128,15.0,19.0,76,0.00,,---,0.00,334.00,VWS V14.01,2013-04-22 15:49:00,
2013-04-22 10:54:00,53.9,45.8,29.87,SE,134,14.0,19.0,74,0.00,,---,0.00,466.00,VWS V14.01,2013-04-22 15:54:00,
2013-04-22 10:59:00,54.8,45.2,29.86,South,175,12.0,21.0,70,0.00,,---,0.00,591.00,VWS V14.01,2013-04-22 15:59:00,
2013-04-22 11:00:00,55.0,45.4,29.86,SSE,153,13.0,21.0,70,0.00,,---,0.00,647.00,VWS V14.01,2013-04-22 16:00:00,
2013-04-22 11:04:00,55.7,45.3,29.86,SE,128,22.0,22.0,68,0.00,,---,0.00,722.00,VWS V14.01,2013-04-22 16:04:00,
2013-04-22 11:09:00,56.9,45.3,29.85,SSE,154,16.0,22.0,65,0.01,,---,0.01,728.00,VWS V14.01,2013-04-22 16:09:00,
2013-04-22 11:14:00,57.5,45.0,29.85,SSE,167,7.0,24.0,63,0.01,,---,0.01,610.00,VWS V14.01,2013-04-22 16:14:00,
2013-04-22 11:19:00,57.8,44.9,29.86,SSE,151,16.0,24.0,62,0.01,,---,0.01,343.00,VWS V14.01,2013-04-22 16:19:00,
2013-04-22 11:24:00,57.6,44.7,29.86,SSE,148,12.0,24.0,62,0.01,,---,0.01,348.00,VWS V14.01,2013-04-22 16:24:00,
2013-04-22 11:29:00,58.1,44.7,29.86,SSE,164,14.0,24.0,61,0.01,,---,0.01,271.00,VWS V14.01,2013-04-22 16:29:00,
2013-04-22 11:30:00,58.1,45.2,29.86,SSE,168,14.0,24.0,62,0.01,,---,0.01,285.00,VWS V14.01,2013-04-22 16:30:00,
2013-04-22 11:34:00,58.6,45.2,29.85,SSE,161,16.0,19.0,61,0.01,,---,0.01,262.00,VWS V14.01,2013-04-22 16:34:00,
2013-04-22 11:39:00,58.7,44.4,29.86,South,173,14.0,24.0,59,0.01,,---,0.01,156.00,VWS V14.01,2013-04-22 16:39:00,
2013-04-22 11:44:00,58.7,44.0,29.86,SSE,160,17.0,24.0,58,0.01,,---,0.01,69.00,VWS V14.01,2013-04-22 16:44:00,
2013-04-22 11:49:00,58.7,44.0,29.86,South,171,6.0,24.0,58,0.01,,---,0.01,54.00,VWS V14.01,2013-04-22 16:49:00,
2013-04-22 11:54:00,58.6,44.3,29.85,South,179,15.0,24.0,59,0.01,,---,0.01,44.00,VWS V14.01,2013-04-22 16:54:00,
2013-04-22 11:59:00,58.6,44.8,29.85,South,171,13.0,24.0,60,0.01,,---,0.01,42.00,VWS V14.01,2013-04-22 16:59:00,
2013-04-22 12:00:00,58.4,44.6,29.85,SSE,159,19.0,26.0,60,0.01,,---,0.01,42.00,VWS V14.01,2013-04-22 17:00:00,
2013-04-22 12:04:00,58.3,44.5,29.85,South,171,16.0,25.0,60,0.01,,---,0.01,37.00,VWS V14.01,2013-04-22 17:04:00,
2013-04-22 12:09:00,57.6,45.5,29.85,SSE,156,10.0,25.0,64,0.01,,---,0.01,51.00,VWS V14.01,2013-04-22 17:09:00,
2013-04-22 12:14:00,57.2,45.6,29.85,SSE,164,12.0,25.0,65,0.01,,---,0.01,51.00,VWS V14.01,2013-04-22 17:14:00,
2013-04-22 12:19:00,56.6,46.2,29.85,South,177,9.0,25.0,68,0.01,,---,0.01,19.00,VWS V14.01,2013-04-22 17:19:00,
2013-04-22 12:24:00,56.2,46.2,29.85,SSE,159,15.0,25.0,69,0.01,,---,0.01,14.00,VWS V14.01,2013-04-22 17:24:00,
2013-04-22 12:29:00,55.7,45.7,29.85,SSE,166,11.0,25.0,69,0.02,,---,0.02,26.00,VWS V14.01,2013-04-22 17:29:00,
2013-04-22 12:30:00,55.7,45.7,29.85,SSE,159,8.0,25.0,69,0.02,,---,0.02,26.00,VWS V14.01,2013-04-22 17:30:00,
2013-04-22 12:34:00,55.4,46.2,29.85,South,171,14.0,16.0,71,0.01,,---,0.02,40.00,VWS V14.01,2013-04-22 17:34:00,
2013-04-22 12:39:00,55.1,46.6,29.86,South,171,14.0,16.0,73,0.01,,---,0.02,32.00,VWS V14.01,2013-04-22 17:39:00,
2013-04-22 12:44:00,54.7,46.9,29.85,South,171,9.0,16.0,75,0.02,,---,0.03,16.00,VWS V14.01,2013-04-22 17:44:00,
2013-04-22 12:49:00,54.1,46.7,29.84,SE,131,11.0,16.0,76,0.03,,---,0.04,26.00,VWS V14.01,2013-04-22 17:49:00,
2013-04-22 12:54:00,53.8,47.1,29.85,SSE,160,9.0,16.0,78,0.04,,---,0.05,42.00,VWS V14.01,2013-04-22 17:54:00,
2013-04-22 12:59:00,53.6,47.3,29.85,SSE,150,9.0,16.0,79,0.05,,---,0.06,37.00,VWS V14.01,2013-04-22 17:59:00,
2013-04-22 13:00:00,53.6,47.3,29.85,SE,144,9.0,16.0,79,0.05,,---,0.06,37.00,VWS V14.01,2013-04-22 18:00:00,
2013-04-22 13:04:00,53.5,47.2,29.84,SE,128,14.0,15.0,79,0.07,,---,0.08,56.00,VWS V14.01,2013-04-22 18:04:00,
2013-04-22 13:09:00,53.2,47.2,29.83,SE,129,5.0,15.0,80,0.08,,---,0.09,49.00,VWS V14.01,2013-04-22 18:09:00,
2013-04-22 13:30:00,55.7,45.7,29.85,SSE,159,8.0,25.0,69,0.02,,---,0.02,26.00,VWS V14.01,2013-04-22 18:30:00,
2013-04-22 13:32:00,53.2,47.2,29.84,NE,53,5.0,5.0,80,0.00,,---,0.10,11.00,VWS V14.01,2013-04-22 18:32:00,
2013-04-22 13:37:00,53.3,47.6,29.85,SE,124,6.0,8.0,81,0.10,,---,0.11,7.00,VWS V14.01,2013-04-22 18:37:00,
2013-04-22 13:42:00,53.3,47.3,29.85,NE,48,7.0,8.0,80,0.10,,---,0.11,12.00,VWS V14.01,2013-04-22 18:42:00,
2013-04-22 13:47:00,53.2,47.5,29.85,NE,38,7.0,9.0,81,0.10,,---,0.11,19.00,VWS V14.01,2013-04-22 18:47:00,
2013-04-22 13:52:00,53.1,48.1,29.85,ENE,74,7.0,9.0,83,0.10,,---,0.11,26.00,VWS V14.01,2013-04-22 18:52:00,
2013-04-22 13:57:00,52.9,47.9,29.84,ENE,74,3.0,10.0,83,0.10,,---,0.11,35.00,VWS V14.01,2013-04-22 18:57:00,
2013-04-22 14:00:00,52.9,47.9,29.84,East,90,6.0,10.0,83,0.10,,---,0.11,39.00,VWS V14.01,2013-04-22 19:00:00,
2013-04-22 14:02:00,52.9,47.9,29.84,East,89,3.0,6.0,83,0.05,,---,0.11,46.00,VWS V14.01,2013-04-22 19:02:00,
2013-04-22 14:07:00,53.1,48.1,29.84,ESE,120,5.0,7.0,83,0.05,,---,0.11,47.00,VWS V14.01,2013-04-22 19:07:00,
2013-04-22 14:12:00,53.3,48.0,29.84,SE,138,6.0,9.0,82,0.05,,---,0.11,49.00,VWS V14.01,2013-04-22 19:12:00,
2013-04-22 14:17:00,53.8,47.1,29.84,ESE,109,5.0,9.0,78,0.05,,---,0.11,56.00,VWS V14.01,2013-04-22 19:17:00,
2013-04-22 14:22:00,54.2,47.5,29.84,ESE,111,7.0,12.0,78,0.05,,---,0.11,60.00,VWS V14.01,2013-04-22 19:22:00,
2013-04-22 14:27:00,54.2,47.5,29.84,East,95,7.0,12.0,78,0.05,,---,0.11,67.00,VWS V14.01,2013-04-22 19:27:00,
2013-04-22 14:30:00,54.2,47.5,29.84,East,97,8.0,12.0,78,0.05,,---,0.11,63.00,VWS V14.01,2013-04-22 19:30:00,
2013-04-22 14:32:00,54.2,47.5,29.84,East,80,5.0,12.0,78,0.00,,---,0.11,70.00,VWS V14.01,2013-04-22 19:32:00,
2013-04-22 14:37:00,54.1,47.7,29.84,ESE,102,6.0,12.0,79,0.00,,---,0.11,72.00,VWS V14.01,2013-04-22 19:37:00,
2013-04-22 14:42:00,53.9,47.9,29.84,East,88,7.0,12.0,80,0.00,,---,0.11,56.00,VWS V14.01,2013-04-22 19:42:00,
2013-04-22 14:47:00,53.8,48.4,29.84,ENE,74,5.0,12.0,82,0.01,,---,0.12,51.00,VWS V14.01,2013-04-22 19:47:00,
2013-04-22 14:52:00,53.5,48.5,29.84,East,91,5.0,12.0,83,0.01,,---,0.12,54.00,VWS V14.01,2013-04-22 19:52:00,
2013-04-22 14:57:00,53.3,48.6,29.84,ENE,59,6.0,12.0,84,0.01,,---,0.12,54.00,VWS V14.01,2013-04-22 19:57:00,
2013-04-22 15:00:00,53.2,48.5,29.84,NE,55,4.0,12.0,84,0.01,,---,0.12,49.00,VWS V14.01,2013-04-22 20:00:00,
2013-04-22 15:02:00,53.2,48.8,29.84,NE,55,4.0,7.0,85,0.01,,---,0.12,46.00,VWS V14.01,2013-04-22 20:02:00,
2013-04-22 15:07:00,53.2,48.8,29.84,NE,55,4.0,7.0,85,0.01,,---,0.12,39.00,VWS V14.01,2013-04-22 20:07:00,
2013-04-22 15:12:00,53.2,49.1,29.84,NNE,20,5.0,7.0,86,0.01,,---,0.12,46.00,VWS V14.01,2013-04-22 20:12:00,
2013-04-22 15:17:00,53.1,49.0,29.84,NNE,31,3.0,7.0,86,0.01,,---,0.12,67.00,VWS V14.01,2013-04-22 20:17:00,
2013-04-22 15:22:00,53.2,49.1,29.83,NE,50,5.0,7.0,86,0.01,,---,0.12,65.00,VWS V14.01,2013-04-22 20:22:00,
2013-04-22 15:27:00,53.3,48.9,29.83,ENE,71,4.0,7.0,85,0.01,,---,0.12,72.00,VWS V14.01,2013-04-22 20:27:00,
2013-04-22 15:30:00,53.3,48.9,29.83,ENE,70,4.0,7.0,85,0.01,,---,0.12,91.00,VWS V14.01,2013-04-22 20:30:00,
2013-04-22 15:32:00,53.3,48.9,29.83,East,96,7.0,7.0,85,0.01,,---,0.12,100.00,VWS V14.01,2013-04-22 20:32:00,
2013-04-22 15:37:00,53.3,48.9,29.82,ESE,106,9.0,11.0,85,0.01,,---,0.12,77.00,VWS V14.01,2013-04-22 20:37:00,
2013-04-22 15:42:00,53.3,49.2,29.82,East,92,8.0,14.0,86,0.01,,---,0.12,84.00,VWS V14.01,2013-04-22 20:42:00,
2013-04-22 15:47:00,53.3,48.9,29.82,ESE,113,11.0,14.0,85,0.01,,---,0.12,100.00,VWS V14.01,2013-04-22 20:47:00,
2013-04-22 15:52:00,53.6,48.6,29.82,ESE,103,6.0,14.0,83,0.01,,---,0.12,111.00,VWS V14.01,2013-04-22 20:52:00,
2013-04-22 15:57:00,54.2,48.5,29.82,East,88,10.0,14.0,81,0.01,,---,0.12,105.00,VWS V14.01,2013-04-22 20:57:00,
2013-04-22 16:00:00,54.4,48.4,29.82,ENE,69,4.0,14.0,80,0.01,,---,0.12,120.00,VWS V14.01,2013-04-22 21:00:00,
2013-04-22 16:02:00,54.4,48.7,29.82,East,84,4.0,6.0,81,0.00,,---,0.12,107.00,VWS V14.01,2013-04-22 21:02:00,
2013-04-22 16:07:00,54.5,49.1,29.82,East,90,6.0,7.0,82,0.00,,---,0.12,146.00,VWS V14.01,2013-04-22 21:07:00,
2013-04-22 16:12:00,54.5,49.1,29.82,East,94,6.0,7.0,82,0.00,,---,0.12,128.00,VWS V14.01,2013-04-22 21:12:00,
2013-04-22 16:17:00,54.7,49.3,29.81,East,92,4.0,7.0,82,0.00,,---,0.12,111.00,VWS V14.01,2013-04-22 21:17:00,
2013-04-22 16:22:00,54.8,49.4,29.81,East,94,6.0,7.0,82,0.00,,---,0.12,100.00,VWS V14.01,2013-04-22 21:22:00,
2013-04-22 16:27:00,55.0,49.3,29.82,ESE,110,7.0,9.0,81,0.00,,---,0.12,105.00,VWS V14.01,2013-04-22 21:27:00,
2013-04-22 16:30:00,55.0,49.3,29.82,ESE,111,4.0,9.0,81,0.00,,---,0.12,86.00,VWS V14.01,2013-04-22 21:30:00,
2013-04-22 16:32:00,55.1,49.7,29.82,East,84,4.0,6.0,82,0.00,,---,0.12,74.00,VWS V14.01,2013-04-22 21:32:00,
2013-04-22 16:37:00,55.1,49.4,29.82,East,86,4.0,8.0,81,0.00,,---,0.12,54.00,VWS V14.01,2013-04-22 21:37:00,
2013-04-22 16:42:00,55.1,49.4,29.82,East,92,5.0,8.0,81,0.00,,---,0.12,49.00,VWS V14.01,2013-04-22 21:42:00,
2013-04-22 16:47:00,55.1,49.4,29.82,East,101,5.0,8.0,81,0.00,,---,0.12,49.00,VWS V14.01,2013-04-22 21:47:00,
2013-04-22 16:52:00,55.1,49.0,29.82,East,84,4.0,8.0,80,0.00,,---,0.12,51.00,VWS V14.01,2013-04-22 21:52:00,
2013-04-22 16:57:00,55.3,49.2,29.83,ENE,77,4.0,8.0,80,0.00,,---,0.12,56.00,VWS V14.01,2013-04-22 21:57:00,
2013-04-22 17:00:00,55.3,49.6,29.83,ENE,77,3.0,8.0,81,0.00,,---,0.12,58.00,VWS V14.01,2013-04-22 22:00:00,
2013-04-22 17:02:00,55.3,49.2,29.82,ENE,77,4.0,5.0,80,0.00,,---,0.12,60.00,VWS V14.01,2013-04-22 22:02:00,
2013-04-22 17:08:00,55.3,49.6,29.83,NE,54,4.0,5.0,81,0.00,,---,0.12,53.00,VWS V14.01,2013-04-22 22:08:00,
2013-04-22 17:13:00,55.3,49.9,29.83,NNE,25,8.0,8.0,82,0.00,,---,0.12,42.00,VWS V14.01,2013-04-22 22:13:00,
2013-04-22 17:18:00,55.1,49.7,29.83,NNE,13,5.0,8.0,82,0.00,,---,0.12,39.00,VWS V14.01,2013-04-22 22:18:00,
2013-04-22 17:23:00,55.1,49.7,29.83,NNE,15,8.0,8.0,82,0.00,,---,0.12,30.00,VWS V14.01,2013-04-22 22:23:00,
2013-04-22 17:28:00,55.0,50.3,29.84,North,350,11.0,12.0,84,0.00,,---,0.12,21.00,VWS V14.01,2013-04-22 22:28:00,
2013-04-22 17:30:00,54.8,50.1,29.84,North,355,9.0,14.0,84,0.00,,---,0.12,19.00,VWS V14.01,2013-04-22 22:30:00,
2013-04-22 17:33:00,54.8,50.1,29.85,North,355,13.0,15.0,84,0.00,,---,0.12,19.00,VWS V14.01,2013-04-22 22:33:00,
2013-04-22 17:38:00,54.5,49.8,29.85,North,355,13.0,15.0,84,0.00,,---,0.12,16.00,VWS V14.01,2013-04-22 22:38:00,
2013-04-22 17:43:00,54.7,50.0,29.85,NNE,17,17.0,17.0,84,0.00,,---,0.12,21.00,VWS V14.01,2013-04-22 22:43:00,
2013-04-22 17:48:00,54.7,50.0,29.85,NNW,340,6.0,17.0,84,0.00,,---,0.12,19.00,VWS V14.01,2013-04-22 22:48:00,
2013-04-22 17:53:00,54.7,50.0,29.86,NNW,346,12.0,17.0,84,0.00,,---,0.12,19.00,VWS V14.01,2013-04-22 22:53:00,
2013-04-22 17:58:00,54.5,50.1,29.86,North,9,14.0,18.0,85,0.00,,---,0.12,18.00,VWS V14.01,2013-04-22 22:58:00,
2013-04-22 18:00:00,54.4,49.7,29.86,NE,42,11.0,18.0,84,0.00,,---,0.12,18.00,VWS V14.01,2013-04-22 23:00:00,
2013-04-22 18:03:00,54.1,49.4,29.86,North,5,16.0,22.0,84,0.00,,---,0.12,16.00,VWS V14.01,2013-04-22 23:03:00,
2013-04-22 18:08:00,50.1,43.5,29.87,NW,317,23.0,35.0,78,0.01,,---,0.13,7.00,VWS V14.01,2013-04-22 23:08:00,
2013-04-22 18:13:00,47.1,42.5,29.89,NNW,341,20.0,37.0,84,0.01,,---,0.13,7.00,VWS V14.01,2013-04-22 23:13:00,
2013-04-22 18:18:00,45.8,41.5,29.89,North,5,17.0,37.0,85,0.01,,---,0.13,9.00,VWS V14.01,2013-04-22 23:18:00,
2013-04-22 18:23:00,44.9,41.0,29.89,North,350,19.0,37.0,86,0.01,,---,0.13,11.00,VWS V14.01,2013-04-22 23:23:00,
2013-04-22 18:28:00,43.9,39.4,29.90,North,355,22.0,37.0,84,0.01,,---,0.13,11.00,VWS V14.01,2013-04-22 23:28:00,
2013-04-22 18:30:00,43.6,39.4,29.89,North,355,23.0,37.0,85,0.01,,---,0.13,11.00,VWS V14.01,2013-04-22 23:30:00,
2013-04-22 18:33:00,43.2,39.0,29.90,North,10,30.0,32.0,85,0.01,,---,0.13,12.00,VWS V14.01,2013-04-22 23:33:00,
2013-04-22 18:38:00,42.3,38.1,29.90,NW,323,19.0,32.0,85,0.01,,---,0.13,12.00,VWS V14.01,2013-04-22 23:38:00,
2013-04-22 18:43:00,41.9,38.0,29.91,NW,323,10.0,32.0,86,0.01,,---,0.13,9.00,VWS V14.01,2013-04-22 23:43:00,
2013-04-22 18:48:00,41.6,37.7,29.91,NNE,29,16.0,32.0,86,0.01,,---,0.13,9.00,VWS V14.01,2013-04-22 23:48:00,
2013-04-22 18:53:00,41.3,37.7,29.92,NNE,24,16.0,32.0,87,0.01,,---,0.13,5.00,VWS V14.01,2013-04-22 23:53:00,
2013-04-22 18:58:00,40.8,36.9,29.92,North,11,25.0,32.0,86,0.01,,---,0.13,7.00,VWS V14.01,2013-04-22 23:58:00,
2013-04-22 19:00:00,40.6,36.8,29.92,NNW,341,14.0,32.0,86,0.01,,---,0.13,9.00,VWS V14.01,2013-04-23 00:00:00,
2013-04-22 19:03:00,40.2,36.3,29.92,NNE,19,17.0,28.0,86,0.01,,---,0.13,14.00,VWS V14.01,2013-04-23 00:03:00,
2013-04-22 19:08:00,39.9,36.1,29.92,North,360,29.0,30.0,86,0.01,,---,0.13,12.00,VWS V14.01,2013-04-23 00:08:00,
2013-04-22 19:13:00,39.6,36.1,29.93,North,360,23.0,30.0,87,0.01,,---,0.13,9.00,VWS V14.01,2013-04-23 00:13:00,
2013-04-22 19:18:00,39.3,35.5,29.94,NNW,333,29.0,34.0,86,0.02,,---,0.14,9.00,VWS V14.01,2013-04-23 00:18:00,
2013-04-22 19:23:00,39.2,35.4,29.94,North,11,11.0,34.0,86,0.02,,---,0.14,9.00,VWS V14.01,2013-04-23 00:23:00,
2013-04-22 19:28:00,39.2,35.4,29.95,NNW,343,13.0,34.0,86,0.02,,---,0.14,0.00,VWS V14.01,2013-04-23 00:28:00,
2013-04-22 19:30:00,39.1,35.3,29.96,NW,320,13.0,34.0,86,0.02,,---,0.14,0.00,VWS V14.01,2013-04-23 00:30:00,
2013-04-22 19:33:00,39.1,35.3,29.96,NNE,13,21.0,28.0,86,0.01,,---,0.14,0.00,VWS V14.01,2013-04-23 00:33:00,
2013-04-22 19:38:00,38.9,35.1,29.96,North,350,28.0,31.0,86,0.01,,---,0.14,0.00,VWS V14.01,2013-04-23 00:38:00,
2013-04-22 19:43:00,38.9,34.8,29.96,North,5,26.0,31.0,85,0.01,,---,0.14,0.00,VWS V14.01,2013-04-23 00:43:00,
2013-04-22 19:48:00,38.9,35.1,29.97,NNW,331,12.0,31.0,86,0.01,,---,0.14,0.00,VWS V14.01,2013-04-23 00:48:00,
2013-04-22 19:53:00,38.5,34.4,29.98,NNE,13,13.0,31.0,85,0.01,,---,0.14,0.00,VWS V14.01,2013-04-23 00:53:00,
2013-04-22 19:58:00,38.5,34.4,29.98,NNE,15,24.0,31.0,85,0.01,,---,0.14,0.00,VWS V14.01,2013-04-23 00:58:00,
2013-04-22 20:00:00,38.5,34.4,29.99,North,355,9.0,31.0,85,0.01,,---,0.14,0.00,VWS V14.01,2013-04-23 01:00:00,
2013-04-22 20:03:00,38.3,34.2,29.99,NW,322,19.0,25.0,85,0.01,,---,0.14,0.00,VWS V14.01,2013-04-23 01:03:00,
2013-04-22 20:08:00,38.2,34.1,29.99,North,360,17.0,26.0,85,0.01,,---,0.14,0.00,VWS V14.01,2013-04-23 01:08:00,
2013-04-22 20:13:00,38.0,33.6,29.99,North,350,15.0,30.0,84,0.01,,---,0.14,0.00,VWS V14.01,2013-04-23 01:13:00,
2013-04-22 20:18:00,37.9,33.2,29.98,NNE,13,19.0,34.0,83,0.01,,---,0.14,0.00,VWS V14.01,2013-04-23 01:18:00,
2013-04-22 20:23:00,37.8,32.8,29.97,NNE,26,14.0,34.0,82,0.01,,---,0.14,0.00,VWS V14.01,2013-04-23 01:23:00,
2013-04-22 20:28:00,37.6,32.6,29.97,NNE,17,14.0,34.0,82,0.01,,---,0.14,0.00,VWS V14.01,2013-04-23 01:28:00,
2013-04-22 20:30:00,37.6,32.6,29.97,North,360,18.0,34.0,82,0.01,,---,0.14,0.00,VWS V14.01,2013-04-23 01:30:00,
2013-04-22 20:33:00,37.6,32.6,29.99,NNE,26,12.0,32.0,82,0.00,,---,0.14,0.00,VWS V14.01,2013-04-23 01:33:00,
2013-04-22 20:38:00,37.8,33.1,30.00,NNE,13,12.0,32.0,83,0.00,,---,0.14,0.00,VWS V14.01,2013-04-23 01:38:00,
2013-04-22 20:43:00,37.6,32.9,30.00,North,360,18.0,32.0,83,0.00,,---,0.14,0.00,VWS V14.01,2013-04-23 01:43:00,
2013-04-22 20:48:00,37.5,33.1,30.00,NNW,329,11.0,32.0,84,0.00,,---,0.14,0.00,VWS V14.01,2013-04-23 01:48:00,
2013-04-22 20:53:00,37.3,32.9,30.01,NNW,344,17.0,32.0,84,0.00,,---,0.14,0.00,VWS V14.01,2013-04-23 01:53:00,
2013-04-22 20:58:00,37.0,32.6,30.01,North,355,16.0,32.0,84,0.00,,---,0.14,0.00,VWS V14.01,2013-04-23 01:58:00,
2013-04-22 21:00:00,37.0,32.6,30.01,North,5,9.0,32.0,84,0.00,,---,0.14,0.00,VWS V14.01,2013-04-23 02:00:00,
2013-04-22 21:03:00,37.0,32.6,30.00,North,5,26.0,31.0,84,0.00,,---,0.14,0.00,VWS V14.01,2013-04-23 02:03:00,
2013-04-22 21:08:00,36.8,32.4,30.01,North,349,23.0,31.0,84,0.00,,---,0.14,0.00,VWS V14.01,2013-04-23 02:08:00,
2013-04-22 21:13:00,36.8,32.4,30.01,North,360,18.0,31.0,84,0.00,,---,0.14,0.00,VWS V14.01,2013-04-23 02:13:00,
2013-04-22 21:18:00,36.8,32.1,30.02,NNE,21,21.0,31.0,83,0.00,,---,0.14,0.00,VWS V14.01,2013-04-23 02:18:00,
2013-04-22 21:23:00,36.8,31.8,30.03,North,5,23.0,31.0,82,0.00,,---,0.14,0.00,VWS V14.01,2013-04-23 02:23:00,
2013-04-22 21:28:00,36.6,31.3,30.03,North,355,30.0,31.0,81,0.00,,---,0.14,0.00,VWS V14.01,2013-04-23 02:28:00,
2013-04-22 21:30:00,36.6,31.3,30.03,NNE,17,27.0,31.0,81,0.00,,---,0.14,0.00,VWS V14.01,2013-04-23 02:30:00,
2013-04-22 21:33:00,36.6,31.6,30.04,North,355,15.0,30.0,82,0.00,,---,0.14,0.00,VWS V14.01,2013-04-23 02:33:00,
2013-04-22 21:38:00,36.5,31.2,30.05,North,355,18.0,30.0,81,0.00,,---,0.14,0.00,VWS V14.01,2013-04-23 02:38:00,
2013-04-22 21:43:00,36.6,31.3,30.06,North,9,14.0,30.0,81,0.00,,---,0.14,0.00,VWS V14.01,2013-04-23 02:43:00,
2013-04-22 21:48:00,36.6,31.0,30.06,NNW,343,17.0,30.0,80,0.00,,---,0.14,0.00,VWS V14.01,2013-04-23 02:48:00,
2013-04-22 21:53:00,36.5,30.9,30.06,NNW,344,26.0,30.0,80,0.00,,---,0.14,0.00,VWS V14.01,2013-04-23 02:53:00,
2013-04-22 21:58:00,36.5,30.9,30.06,North,5,12.0,30.0,80,0.00,,---,0.14,0.00,VWS V14.01,2013-04-23 02:58:00,
2013-04-22 22:00:00,36.5,30.6,30.06,North,10,11.0,30.0,79,0.00,,---,0.14,0.00,VWS V14.01,2013-04-23 03:00:00,
2013-04-22 22:03:00,36.3,30.4,30.05,NNW,346,9.0,23.0,79,0.00,,---,0.14,0.00,VWS V14.01,2013-04-23 03:03:00,
2013-04-22 22:08:00,36.3,30.4,30.06,North,360,23.0,30.0,79,0.00,,---,0.14,0.00,VWS V14.01,2013-04-23 03:08:00,
2013-04-22 22:13:00,36.5,30.6,30.07,NNE,30,9.0,30.0,79,0.00,,---,0.14,0.00,VWS V14.01,2013-04-23 03:13:00,
2013-04-22 22:18:00,36.3,30.4,30.05,North,355,19.0,30.0,79,0.00,,---,0.14,0.00,VWS V14.01,2013-04-23 03:18:00,
2013-04-22 22:23:00,36.2,30.3,30.07,NNE,13,8.0,30.0,79,0.00,,---,0.14,0.00,VWS V14.01,2013-04-23 03:23:00,
2013-04-22 22:28:00,36.2,30.3,30.07,NNE,22,24.0,30.0,79,0.00,,---,0.14,0.00,VWS V14.01,2013-04-23 03:28:00,
2013-04-22 22:30:00,36.0,30.4,30.06,North,11,12.0,30.0,80,0.00,,---,0.14,0.00,VWS V14.01,2013-04-23 03:30:00,
2013-04-22 22:33:00,36.0,30.4,30.05,North,355,19.0,26.0,80,0.00,,---,0.14,0.00,VWS V14.01,2013-04-23 03:33:00,
2013-04-22 22:38:00,35.9,31.0,30.05,NNW,342,17.0,30.0,82,0.00,,---,0.14,0.00,VWS V14.01,2013-04-23 03:38:00,
2013-04-22 22:43:00,35.9,31.0,30.06,North,351,11.0,30.0,82,0.00,,---,0.14,0.00,VWS V14.01,2013-04-23 03:43:00,
2013-04-22 22:48:00,35.8,31.1,30.06,NNE,28,9.0,30.0,83,0.00,,---,0.14,0.00,VWS V14.01,2013-04-23 03:48:00,
2013-04-22 22:53:00,35.6,31.0,30.06,North,355,18.0,30.0,83,0.00,,---,0.14,0.00,VWS V14.01,2013-04-23 03:53:00,
2013-04-22 22:58:00,35.6,30.7,30.08,NNW,339,13.0,30.0,82,0.01,,---,0.15,0.00,VWS V14.01,2013-04-23 03:58:00,
2013-04-22 23:00:00,35.8,31.1,30.09,NNW,333,13.0,30.0,83,0.01,,---,0.15,0.00,VWS V14.01,2013-04-23 04:00:00,
2013-04-22 23:01:00,35.8,31.1,30.09,North,355,14.0,20.0,83,0.01,,---,0.15,0.00,VWS V14.01,2013-04-23 04:01:00,
2013-04-22 23:06:00,35.9,30.6,30.11,NNW,340,15.0,30.0,81,0.01,,---,0.15,0.00,VWS V14.01,2013-04-23 04:06:00,
2013-04-22 23:11:00,35.9,30.3,30.12,North,351,11.0,30.0,80,0.01,,---,0.15,0.00,VWS V14.01,2013-04-23 04:11:00,
2013-04-22 23:16:00,35.9,30.0,30.12,NNW,338,20.0,32.0,79,0.01,,---,0.15,0.00,VWS V14.01,2013-04-23 04:16:00,
2013-04-22 23:21:00,35.6,30.4,30.11,North,360,21.0,32.0,81,0.02,,---,0.16,0.00,VWS V14.01,2013-04-23 04:21:00,
2013-04-22 23:26:00,35.2,30.9,30.08,North,355,17.0,32.0,84,0.04,,---,0.18,0.00,VWS V14.01,2013-04-23 04:26:00,
2013-04-22 23:30:00,35.0,30.7,30.08,North,5,31.0,32.0,84,0.04,,---,0.18,0.00,VWS V14.01,2013-04-23 04:30:00,
2013-04-22 23:31:00,35.0,30.4,30.08,NNE,19,22.0,31.0,83,0.04,,---,0.18,0.00,VWS V14.01,2013-04-23 04:31:00,
2013-04-22 23:36:00,34.9,30.6,30.08,North,355,17.0,31.0,84,0.04,,---,0.18,0.00,VWS V14.01,2013-04-23 04:36:00,
2013-04-22 23:41:00,34.9,30.3,30.07,North,5,15.0,31.0,83,0.04,,---,0.18,0.00,VWS V14.01,2013-04-23 04:41:00,
2013-04-22 23:46:00,34.9,30.3,30.07,North,349,26.0,32.0,83,0.04,,---,0.18,0.00,VWS V14.01,2013-04-23 04:46:00,
2013-04-22 23:51:00,34.9,30.3,30.07,NNW,348,15.0,32.0,83,0.04,,---,0.18,0.00,VWS V14.01,2013-04-23 04:51:00,
2013-04-22 23:56:00,34.9,30.6,30.07,North,360,10.0,32.0,84,0.04,,---,0.18,0.00,VWS V14.01,2013-04-23 04:56:00,